Theta_e
288 287 287 287 287 287 287 287 287 288 288 288 288 288 289 290 290 291 291 292 292 293 293 294 294 295 296 296 296 296 297 296 296 297 297 297 297 297 297 297 297 296
286 286 286 286 286 286 285 285 285 285 286 286 286 286 286 286 287 288 289 289 290 291 291 292 292 292 293 293 294 295 295 295 295 296 295 296 296 296 296 296 297 296
285 285 285 285 285 285 285 285 285 285 285 285 285 285 285 285 285 285 286 286 287 287 289 290 290 291 291 291 292 292 293 294 294 294 295 295 295 295 295 295 296 296
285 285 285 285 285 285 285 285 285 285 286 286 285 286 286 285 285 285 285 285 285 285 285 286 287 288 289 290 291 291 291 292 292 293 293 294 294 294 294 294 294 295
285 285 285 285 285 285 286 286 286 286 286 286 286 286 286 286 286 286 286 286 286 286 285 285 285 285 286 287 287 288 289 289 290 291 291 292 292 293 293 294 294 294
286 286 286 286 286 286 286 287 287 287 287 287 287 287 287 287 287 287 287 287 287 287 286 286 286 286 285 285 285 285 285 286 287 288 289 290 291 291 291 292 292 293
286 286 286 287 287 287 287 287 287 287 287 287 287 287 287 287 287 287 287 286 287 287 287 287 286 286 286 286 286 286 285 285 285 285 286 287 288 289 290 290 290 291
286 286 286 286 286 286 286 286 285 285 285 285 286 286 286 286 286 286 286 286 286 286 287 287 287 287 286 286 286 286 286 286 286 285 285 285 285 286 287 288 289 289
286 286 285 285 285 285 285 285 284 284 284 284 284 285 285 285 285 285 285 285 285 286 286 286 286 286 286 286 286 286 286 286 286 286 286 285 285 284 285 285 286 287
285 285 285 285 285 285 285 285 285 285 284 284 284 284 284 284 284 284 284 284 284 284 284 285 285 285 285 286 285 285 285 285 285 285 285 286 286 285 285 284 284 284
285 285 285 285 285 285 285 285 285 285 285 285 284 284 284 283 283 283 283 283 283 283 283 283 284 284 284 284 285 284 284 284 284 284 285 285 285 285 285 285 285 284
285 285 285 285 284 284 284 284 284 284 284 284 284 283 283 283 282 282 282 282 282 282 282 282 282 282 282 282 283 283 283 283 283 283 284 284 284 284 285 285 285 285
285 285 285 285 284 284 284 284 284 283 283 283 283 282 282 282 281 281 281 281 281 281 281 281 281 281 281 281 281 281 282 282 282 282 282 283 283 283 283 284 284 285
286 286 285 285 285 285 285 285 285 284 283 283 282 282 281 281 280 280 280 280 280 280 280 280 280 280 280 280 280 280 281 281 281 282 282 282 282 283 283 283 284 284
286 286 286 285 285 285 285 285 284 283 283 282 281 281 280 280 279 279 279 279 279 279 279 279 279 279 279 279 280 280 280 281 281 282 282 282 283 283 283 283 283 283
285 285 285 284 284 283 283 282 282 281 280 280 280 279 279 278 278 278 278 278 278 278 278 278 278 278 278 279 280 280 281 281 281 282 282 282 282 283 283 283 283 283
283 283 282 282 281 280 280 279 279 278 278 278 278 277 277 277 276 276 276 276 277 277 277 277 277 277 277 278 279 280 280 281 281 281 281 281 282 282 282 282 282 282
280 280 279 279 278 277 277 277 276 276 276 276 276 275 275 275 275 275 275 275 275 275 275 275 275 276 276 277 278 279 279 280 280 280 280 280 281 281 281 282 282 282
278 277 277 276 276 275 275 275 275 274 274 273 273 273 273 273 273 273 273 273 273 273 273 273 273 274 275 276 277 277 278 278 279 279 279 279 279 279 280 280 281 281
276 276 275 275 274 274 274 273 273 272 272 271 271 271 270 270 270 270 270 270 270 270 270 271 271 272 273 274 275 276 276 277 277 277 277 277 277 278 278 279 279 280
274 274 274 273 273 272 272 272 271 270 270 269 269 268 268 268 268 268 268 268 268 268 268 268 269 270 271 272 273 274 275 275 276 276 276 276 276 276 277 277 277 278
273 272 272 271 271 271 270 270 269 268 268 267 267 267 266 266 266 266 266 266 266 266 266 266 266 267 268 270 271 272 273 273 273 273 274 274 274 275 275 276 276 277
271 270 270 270 269 269 268 268 267 267 266 265 265 265 264 264 264 264 264 264 264 264 264 264 264 265 267 268 269 270 271 271 271 271 272 273 273 273 273 274 274 275
269 269 269 268 268 267 266 266 265 265 264 264 263 263 263 263 263 263 263 263 263 263 263 263 264 264 265 266 267 268 269 270 270 271 271 271 272 272 272 273 273 273
269 268 268 267 266 266 265 264 264 263 263 263 262 262 262 262 262 262 262 262 262 262 263 263 263 263 264 265 266 268 269 269 270 270 270 271 271 271 272 272 272 273
268 267 266 265 265 264 264 263 263 262 262 262 262 262 261 261 261 261 261 262 262 262 262 262 263 263 263 265 266 267 268 269 269 270 270 270 270 270 271 271 271 272
Wind_Speed
22 22 22 22 23 23 23 24 24 24 24 24 24 24 24 23 22 22 22 20 19 18 17 17 16 17 17 18 18 18 18 18 19 19 20 21 21 21 22 22 23 25
21 20 20 21 21 21 22 23 23 23 24 24 23 24 24 24 23 23 23 23 22 21 20 18 18 17 17 18 18 18 18 19 19 19 19 21 21 22 22 22 22 23
20 20 20 20 20 20 21 21 21 22 22 22 22 23 23 24 24 24 24 24 24 23 23 21 21 20 19 18 18 18 18 19 19 19 19 20 20 22 22 22 22 22
18 19 19 19 20 21 21 21 22 22 23 23 23 23 23 24 24 24 24 24 24 25 25 24 24 23 22 21 20 20 19 19 19 19 20 20 20 21 21 22 23 23
15 16 17 18 18 19 20 22 23 24 24 25 25 25 25 26 26 26 26 25 25 25 24 24 25 25 24 24 23 22 22 21 20 19 20 21 21 21 21 22 23 23
12 13 14 15 16 16 18 19 20 21 22 23 24 25 25 26 27 27 28 28 27 27 26 25 25 25 26 26 26 26 25 25 23 22 21 21 22 22 22 22 23 24
8 10 11 12 13 13 14 15 16 18 19 19 20 22 23 24 25 26 27 28 29 29 29 29 28 27 27 27 27 27 27 27 27 27 26 24 23 23 22 23 24 25
5 7 8 10 10 11 11 13 14 17 19 20 21 22 23 23 24 26 26 27 28 29 30 30 31 31 31 30 29 28 28 28 28 28 29 29 27 26 24 24 24 25
4 5 7 9 10 11 12 13 15 19 20 22 23 24 25 25 25 25 26 27 28 29 29 30 31 31 32 32 32 31 30 29 28 27 28 29 29 29 28 26 26 26
4 5 8 10 12 14 15 17 19 22 24 25 26 26 27 27 28 28 28 29 29 30 31 31 31 32 32 33 33 33 33 32 31 29 28 27 28 28 29 29 28 28
5 6 9 11 13 16 18 20 22 25 27 29 29 29 30 30 30 31 30 31 31 31 32 33 33 33 33 34 34 34 34 34 34 32 31 29 28 28 28 28 29 29
7 8 11 12 15 18 20 22 24 26 28 30 30 30 30 31 31 32 31 32 32 32 32 32 33 33 33 34 34 34 34 34 34 34 34 33 31 30 29 28 28 30
10 12 14 16 19 22 25 27 28 29 30 31 30 30 31 31 31 32 32 32 32 32 32 32 32 33 34 34 33 33 33 33 34 35 35 35 35 34 32 30 29 30
13 15 17 20 23 25 28 30 31 33 34 34 33 33 33 33 34 34 35 34 33 32 32 31 32 32 33 32 31 32 32 33 34 35 35 36 36 36 35 34 32 31
16 18 20 22 25 27 29 31 33 35 36 36 37 36 37 37 37 37 37 37 37 36 35 35 34 34 34 32 30 31 32 32 33 33 34 35 36 37 37 36 36 35
17 19 21 23 26 28 30 31 33 35 36 38 39 39 39 39 39 39 38 38 39 40 40 40 38 38 37 33 29 29 31 32 32 32 32 33 34 36 37 38 37 37
19 21 22 24 25 27 29 31 33 34 36 37 39 40 41 41 41 41 41 40 39 40 41 42 42 43 42 35 31 29 30 31 31 32 32 33 33 34 36 37 38 38
20 22 23 24 25 27 29 31 32 34 35 36 38 39 40 41 41 41 41 41 39 39 40 41 43 45 43 37 34 32 31 30 31 32 32 33 33 33 34 36 37 38
21 22 24 26 27 28 30 31 33 34 34 35 36 37 37 38 39 39 40 40 38 38 40 41 43 44 40 36 35 35 33 32 32 33 34 34 35 35 36 36 36 36
21 23 25 27 28 29 31 32 33 34 33 32 33 34 34 35 37 38 39 39 38 37 39 41 43 41 37 35 36 35 34 34 34 35 37 37 38 38 38 38 38 37
23 24 26 27 29 30 31 32 32 32 32 31 32 33 34 34 35 36 37 37 36 36 38 41 42 39 36 36 36 34 34 34 34 36 38 39 41 40 39 39 39 38
23 25 26 28 29 29 30 31 31 31 31 32 33 34 34 33 34 35 35 36 36 35 35 39 40 36 34 34 34 33 33 34 34 35 37 39 41 40 39 39 38 38
22 24 26 27 28 28 29 29 30 31 31 30 32 33 34 33 34 35 33 33 34 34 34 37 39 34 31 32 32 31 32 33 33 35 36 37 40 41 40 40 40 40
21 23 24 25 26 27 28 29 29 30 30 29 29 32 33 33 33 35 34 32 33 34 33 35 38 34 31 31 31 30 30 31 32 33 34 35 37 38 38 38 39 38
21 22 23 24 25 26 27 28 28 29 29 29 29 30 33 33 33 34 35 32 32 34 32 32 36 35 31 30 30 29 29 29 30 31 33 33 33 33 34 34 35 36
21 22 22 23 24 25 26 27 27 28 29 30 30 30 32 33 32 33 34 33 31 32 32 31 34 35 32 29 29 29 28 28 29 29 30 31 31 32 34 34 33 34
Wind_Direction
60 59 57 55 52 48 44 42 40 40 37 33 30 26 23 20 17 14 12 9 4 356 347 339 332 325 320 316 314 311 310 310 310 310 309 306 303 299 292 286 279 273
59 59 58 57 55 51 47 44 40 38 36 32 29 25 21 18 15 14 12 10 9 6 1 353 347 342 334 328 323 317 314 311 308 308 309 309 307 305 301 297 292 286
54 54 53 52 51 49 46 44 41 38 34 31 28 24 20 16 13 12 10 8 6 4 2 359 356 353 347 342 335 328 323 320 316 313 310 308 307 306 306 304 301 297
47 45 44 42 40 39 36 33 31 29 25 23 21 18 16 13 10 9 8 6 3 1 359 357 356 354 352 348 343 339 334 328 324 321 316 309 306 306 307 307 305 303
41 37 34 30 28 26 24 22 20 17 15 13 12 9 8 7 5 4 3 2 0 358 356 354 352 352 350 349 347 344 341 337 333 329 324 317 313 311 309 308 306 305
37 33 29 25 22 19 17 16 14 11 8 6 5 2 1 0 359 358 357 355 355 353 351 350 349 348 347 346 344 343 341 340 338 336 332 326 321 317 314 311 309 307
29 26 23 21 20 16 13 11 8 5 3 360 358 356 355 353 351 351 349 348 346 345 344 344 343 343 342 341 340 338 337 337 336 336 334 332 328 322 319 318 315 312
12 9 12 12 11 8 4 1 358 356 356 353 350 349 347 346 344 342 341 339 338 337 336 336 336 336 336 335 334 332 331 331 331 331 330 329 329 326 323 322 320 316
357 350 354 359 2 359 356 352 349 348 349 346 344 342 340 339 337 335 334 332 330 329 328 328 328 328 328 328 328 327 325 325 324 323 323 323 323 323 322 321 319 317
345 335 338 346 351 351 351 349 345 343 343 341 338 336 334 333 332 330 329 328 326 325 324 323 322 322 321 320 320 321 320 319 319 317 315 314 314 314 315 315 315 314
335 327 329 335 340 342 343 342 340 339 338 336 334 332 330 329 328 327 326 325 323 322 321 320 319 318 316 315 315 316 316 315 315 313 311 309 307 306 306 306 306 306
331 330 330 333 336 338 339 338 337 336 334 332 331 328 327 326 325 324 323 321 319 318 317 315 315 314 312 311 310 311 312 312 311 310 308 307 305 303 301 299 297 297
338 339 337 336 335 334 333 333 333 332 330 329 328 327 325 324 323 321 319 317 315 314 313 311 310 309 307 307 307 308 308 308 307 307 306 305 305 303 301 298 295 293
331 329 327 325 324 322 322 322 322 323 324 324 324 324 323 322 321 320 318 316 314 312 310 309 307 305 303 303 304 305 305 305 304 303 303 303 303 302 301 299 296 292
320 319 317 317 317 317 318 318 319 320 320 320 320 320 320 319 319 318 317 315 314 312 310 309 306 303 302 302 303 304 304 303 302 301 301 300 299 299 298 296 294 292
318 317 316 317 318 318 319 319 319 319 319 318 317 317 317 317 316 315 314 313 313 311 310 309 307 305 304 305 304 304 304 303 302 300 299 297 295 294 293 292 290 290
319 319 320 320 320 320 319 319 319 318 317 315 314 313 313 314 313 312 312 311 310 310 308 307 306 304 305 307 307 307 306 304 302 300 297 295 292 290 289 289 288 287
322 322 322 323 323 322 321 320 318 316 315 314 313 312 312 311 310 310 309 308 309 308 307 306 304 303 305 309 310 310 310 307 304 301 297 294 291 288 287 286 286 286
324 323 323 323 323 322 320 318 317 316 316 315 313 312 311 309 308 308 307 306 308 308 306 304 302 302 305 309 311 311 311 309 305 301 297 293 291 288 287 286 285 285
324 323 323 322 321 320 319 318 318 317 316 315 313 311 310 308 307 307 306 306 307 308 307 304 301 302 306 309 310 310 309 307 304 299 296 293 290 288 286 285 284 284
323 323 322 320 320 319 319 318 318 317 316 315 313 311 310 309 308 307 307 308 309 309 307 303 301 304 309 309 308 308 307 306 303 299 295 292 290 288 286 284 283 283
322 321 320 320 320 320 320 319 319 318 316 316 314 312 311 310 309 309 309 310 310 310 308 304 303 307 312 310 309 309 307 305 302 299 295 292 290 288 287 285 284 282
320 319 320 321 321 322 321 320 319 317 317 317 315 312 312 311 309 309 309 310 309 309 308 305 305 310 313 312 311 310 308 305 301 298 294 291 289 288 287 286 284 282
320 321 322 322 322 322 320 319 318 317 316 316 313 310 308 308 308 308 308 308 308 307 307 305 305 308 312 311 310 309 307 304 300 298 294 291 290 289 287 286 285 284
323 323 323 322 321 321 319 317 317 315 314 313 310 307 306 306 307 307 306 307 307 306 306 305 304 307 310 309 308 307 305 302 300 297 294 292 292 291 290 289 288 287
325 324 324 323 321 320 318 316 315 313 313 311 309 306 306 307 307 306 305 306 307 306 306 306 305 307 308 308 306 305 304 302 299 295 293 293 293 293 293 293 292 291